Regional Weather Roundup
Issued by NWS

Home | Current Version | Previous Version | Text Only | Print | Product List | Glossary Off
Versions: 1 2 3 4 5 6 7 8 9 10 11 12 13 14 15 16 17 18 19 20 21 22 23 24 25 26 27 28 29 30 31 32 33 34 35 36 37 38 39 40 41 42 43 44 45 46 47 48 49 50

000
ASUS45 KBOI 300610
RWRID

IDAHO REGIONAL WEATHER ROUNDUP
NATIONAL WEATHER SERVICE BOISE ID
1200 AM MDT TUE MAY 30 2017

NOTE: "FAIR" INDICATES FEW OR NO CLOUDS BELOW 12000 FEET
WITH NO SIGNIFICANT WEATHER AND/OR OBSTRUCTIONS TO VISIBILITY

IDZ012-014-300700-
SOUTHWEST IDAHO


CITY           SKY/WX    TMP DP  RH WIND       PRES   REMARKS
BOISE          CLEAR     69  43  38 SE8       29.97S
CALDWELL       CLEAR     68  47  46 CALM      29.95S
MOUNTAIN HOME  CLEAR     61  43  50 E3        29.98R
$$

IDZ016-017-300700-
SOUTHCENTRAL IDAHO


CITY           SKY/WX    TMP DP  RH WIND       PRES   REMARKS
BURLEY         CLEAR     59  44  57 S6        30.05S
JEROME         CLEAR     67  37  33 E12       30.05F
TWIN FALLS     CLEAR     58  42  55 S13       30.05S
$$

IDZ019>023-300700-
SOUTHEAST IDAHO


CITY           SKY/WX    TMP DP  RH WIND       PRES   REMARKS
IDAHO FALLS    CLEAR     53  47  79 CALM      30.13S
POCATELLO      CLEAR     54  39  57 CALM      30.10F
REXBURG        CLEAR     54  45  71 NE3       30.13S
$$

IDZ006-010-011-018-031-032-300700-
CENTRAL IDAHO MOUNTAINS


CITY           SKY/WX    TMP DP  RH WIND       PRES   REMARKS
MCCALL         CLEAR     59  33  37 N8        30.11S
HAILEY         CLEAR     55  43  62 NW8       30.18S
STANLEY          N/A     47  35  63 S5        30.24R
SALMON         CLOUDY    61  45  55 CALM      30.06S
CHALLIS        PTCLDY    57  40  52 CALM      30.13R
$$

IDZ002-004-006-007-026-300700-
NORTHERN IDAHO


CITY           SKY/WX    TMP DP  RH WIND       PRES   REMARKS
LEWISTON       CLEAR     70  46  42 CALM      29.91R
LOWELL           N/A     59  50  72 CALM      29.97R
COEUR D`ALENE  CLEAR     61  52  72 CALM      29.96S
MULLAN PASS    CLEAR     59  35  40 SE7       30.17S
$$



USA.gov is the U.S. government's official web portal to all federal, state and local government web resources and services.